Date,%user,%sys,%wio,%idle
1/Nov/2003 01:00:01,1,1,0,97
1/Nov/2003 01:10:01,15,3,3,79
1/Nov/2003 01:20:01,16,2,3,79
1/Nov/2003 01:30:01,12,4,10,73
1/Nov/2003 01:40:01,15,4,5,76
1/Nov/2003 01:50:01,14,7,6,73
1/Nov/2003 02:00:03,14,9,5,71
1/Nov/2003 02:10:03,22,11,21,47
1/Nov/2003 02:20:03,24,9,17,50
1/Nov/2003 02:30:03,25,7,11,57
1/Nov/2003 02:40:03,22,5,5,68
1/Nov/2003 02:50:03,19,3,7,71
1/Nov/2003 03:00:03,12,4,10,73
1/Nov/2003 03:10:03,8,2,4,86
1/Nov/2003 03:20:03,1,1,0,98
1/Nov/2003 03:30:03,1,1,0,98
1/Nov/2003 03:40:03,1,1,0,97
1/Nov/2003 03:50:03,1,1,0,98
1/Nov/2003 04:00:00,1,1,0,98
1/Nov/2003 04:10:00,1,1,0,98
1/Nov/2003 04:20:00,1,1,0,98
1/Nov/2003 04:30:00,1,1,0,98
1/Nov/2003 04:40:00,1,1,0,98
1/Nov/2003 04:50:00,2,1,0,96
1/Nov/2003 05:00:01,2,1,0,97
1/Nov/2003 05:10:01,1,1,0,98
1/Nov/2003 05:20:01,1,1,0,98
1/Nov/2003 05:30:01,1,1,0,98
1/Nov/2003 05:40:01,1,1,0,98
1/Nov/2003 05:50:01,1,1,0,98
1/Nov/2003 06:00:00,1,1,0,98
1/Nov/2003 06:10:00,1,1,0,98
1/Nov/2003 06:20:00,1,1,0,98
1/Nov/2003 06:30:00,1,1,0,98
1/Nov/2003 06:40:00,1,1,0,98
1/Nov/2003 06:50:00,1,1,0,98
1/Nov/2003 07:00:00,1,1,0,98
1/Nov/2003 07:10:00,1,1,0,98
1/Nov/2003 07:20:00,1,1,0,97
1/Nov/2003 07:30:00,1,1,0,98
1/Nov/2003 07:40:00,1,1,0,98
1/Nov/2003 07:50:00,1,1,0,98
1/Nov/2003 08:00:01,1,1,0,97
1/Nov/2003 08:10:01,1,1,0,97
1/Nov/2003 08:20:01,1,1,0,98
1/Nov/2003 08:30:01,1,1,0,98
1/Nov/2003 08:40:01,1,1,0,98
1/Nov/2003 08:50:01,1,1,0,98
1/Nov/2003 09:00:00,1,1,0,98
1/Nov/2003 09:10:00,1,1,0,98
1/Nov/2003 09:20:00,1,1,0,98
1/Nov/2003 09:30:00,1,1,0,98
1/Nov/2003 09:40:00,1,1,0,98
1/Nov/2003 09:50:00,1,1,0,98
1/Nov/2003 10:00:01,1,1,0,98
1/Nov/2003 10:10:01,1,1,0,98
1/Nov/2003 10:20:01,1,1,0,98
1/Nov/2003 10:30:01,1,1,0,98
1/Nov/2003 10:40:01,1,1,0,98
1/Nov/2003 10:50:01,1,1,0,98
1/Nov/2003 11:00:00,1,1,0,98
1/Nov/2003 11:10:00,1,1,0,98
1/Nov/2003 11:20:00,1,1,0,98
1/Nov/2003 11:30:00,1,1,0,98
1/Nov/2003 11:40:04,1,1,0,98
1/Nov/2003 11:50:04,1,1,0,98
1/Nov/2003 12:00:00,1,1,0,98
1/Nov/2003 12:10:00,1,1,0,97
1/Nov/2003 12:20:00,1,1,0,98
1/Nov/2003 12:30:00,1,1,0,98
1/Nov/2003 12:40:00,1,1,0,98
1/Nov/2003 12:50:00,1,1,0,98
1/Nov/2003 13:00:01,1,1,0,98
1/Nov/2003 13:10:01,1,1,0,98
1/Nov/2003 13:20:01,1,1,0,98
1/Nov/2003 13:30:01,1,1,0,98
1/Nov/2003 13:40:01,1,1,0,98
1/Nov/2003 13:50:01,1,1,0,98
1/Nov/2003 14:00:00,1,1,0,98
1/Nov/2003 14:10:00,1,1,0,98
1/Nov/2003 14:20:00,1,1,0,98
1/Nov/2003 14:30:01,1,1,0,97
1/Nov/2003 14:40:01,1,1,0,98
1/Nov/2003 14:50:01,1,1,0,98
1/Nov/2003 15:00:00,1,1,0,98
1/Nov/2003 15:10:00,1,1,0,97
1/Nov/2003 15:20:00,1,1,0,98
1/Nov/2003 15:30:00,1,1,0,98
1/Nov/2003 15:40:00,1,1,0,98
1/Nov/2003 15:50:00,1,1,0,98
1/Nov/2003 16:00:01,1,1,0,98
1/Nov/2003 16:10:01,1,1,0,98
1/Nov/2003 16:20:01,1,1,0,98
1/Nov/2003 16:30:01,1,1,0,98
1/Nov/2003 16:40:01,1,1,0,98
1/Nov/2003 16:50:01,1,1,0,98
1/Nov/2003 17:00:00,1,1,0,98
1/Nov/2003 17:10:00,1,1,0,98
1/Nov/2003 17:20:00,1,1,0,98
1/Nov/2003 17:30:00,1,1,0,98
1/Nov/2003 17:40:00,1,1,0,98
1/Nov/2003 17:50:00,1,1,0,98
1/Nov/2003 18:00:00,1,1,0,97
1/Nov/2003 18:10:00,1,1,0,98
1/Nov/2003 18:20:00,1,1,0,98
1/Nov/2003 18:30:00,1,1,0,98
1/Nov/2003 18:40:00,1,1,0,98
1/Nov/2003 18:50:00,1,1,0,98
1/Nov/2003 19:00:01,1,1,0,98
1/Nov/2003 19:10:01,1,1,0,98
1/Nov/2003 19:20:01,1,1,0,98
1/Nov/2003 19:30:01,1,1,0,98
1/Nov/2003 19:40:01,1,1,0,98
1/Nov/2003 19:50:01,1,1,0,98
1/Nov/2003 20:00:00,1,1,0,98
1/Nov/2003 20:10:00,1,1,0,97
1/Nov/2003 20:20:00,1,1,0,98
1/Nov/2003 20:30:00,1,1,0,98
1/Nov/2003 20:40:00,1,1,0,98
1/Nov/2003 20:50:00,1,1,0,98
1/Nov/2003 21:00:01,1,1,0,98
1/Nov/2003 21:10:01,1,1,0,98
1/Nov/2003 21:20:01,1,1,0,98
1/Nov/2003 21:30:01,1,1,0,98
1/Nov/2003 21:40:01,1,1,0,98
1/Nov/2003 21:50:01,1,1,0,98
1/Nov/2003 22:00:00,1,1,0,98
1/Nov/2003 22:10:00,1,1,0,98
1/Nov/2003 22:20:00,1,1,0,98
1/Nov/2003 22:30:00,1,1,0,98
1/Nov/2003 22:40:00,1,1,0,98
1/Nov/2003 22:50:00,1,1,0,98
1/Nov/2003 23:00:00,1,1,0,98
1/Nov/2003 23:10:00,1,1,0,98
1/Nov/2003 23:20:00,1,1,0,98
1/Nov/2003 23:30:00,1,1,0,98
1/Nov/2003 23:40:00,1,1,0,98
1/Nov/2003 23:50:00,1,1,0,98
2/Nov/2003 01:00:01,2,1,0,97
2/Nov/2003 01:10:01,14,3,6,77
2/Nov/2003 01:20:01,14,3,6,77
2/Nov/2003 01:30:01,13,4,9,74
2/Nov/2003 01:40:01,14,4,5,77
2/Nov/2003 01:50:01,15,6,6,73
2/Nov/2003 02:00:02,14,8,5,73
2/Nov/2003 02:10:02,15,9,4,73
2/Nov/2003 02:20:02,15,5,8,72
2/Nov/2003 02:30:02,12,5,4,79
2/Nov/2003 02:40:02,11,3,0,85
2/Nov/2003 02:50:02,3,1,0,96
2/Nov/2003 03:00:01,1,1,0,97
2/Nov/2003 03:10:01,2,1,1,95
2/Nov/2003 03:20:01,1,1,0,98
2/Nov/2003 03:30:01,1,1,0,98
2/Nov/2003 03:40:02,1,1,0,98
2/Nov/2003 03:50:02,1,1,0,98
2/Nov/2003 04:00:00,3,2,0,95
2/Nov/2003 04:10:00,1,1,0,98
2/Nov/2003 04:20:00,1,1,0,98
2/Nov/2003 04:30:00,1,1,0,98
2/Nov/2003 04:40:00,1,1,0,98
2/Nov/2003 04:50:00,1,1,0,98
2/Nov/2003 05:00:01,1,1,0,98
2/Nov/2003 05:10:01,1,1,0,98
2/Nov/2003 05:20:01,1,1,0,98
2/Nov/2003 05:30:01,1,1,0,98
2/Nov/2003 05:40:01,1,1,0,98
2/Nov/2003 05:50:01,1,1,0,98
2/Nov/2003 06:00:00,1,1,0,98
2/Nov/2003 06:10:00,1,1,0,98
2/Nov/2003 06:20:01,1,1,0,98
2/Nov/2003 06:30:01,1,1,0,98
2/Nov/2003 06:40:01,1,1,0,98
2/Nov/2003 06:50:01,1,1,0,98
2/Nov/2003 07:00:00,1,1,0,98
2/Nov/2003 07:10:00,1,1,0,98
2/Nov/2003 07:20:00,1,1,0,97
2/Nov/2003 07:30:00,1,1,0,98
2/Nov/2003 07:40:00,1,1,0,98
2/Nov/2003 07:50:00,1,1,0,98
2/Nov/2003 08:00:01,1,1,0,98
2/Nov/2003 08:10:01,1,1,0,97
2/Nov/2003 08:20:01,1,1,0,98
2/Nov/2003 08:30:01,1,1,0,98
2/Nov/2003 08:40:01,1,1,0,98
2/Nov/2003 08:50:01,1,1,0,98
2/Nov/2003 09:00:00,1,1,0,98
2/Nov/2003 09:10:00,1,1,0,98
2/Nov/2003 09:20:00,1,1,0,98
2/Nov/2003 09:30:00,1,1,0,98
2/Nov/2003 09:40:00,1,1,0,98
2/Nov/2003 09:50:00,1,1,0,98
2/Nov/2003 10:00:01,1,1,0,98
2/Nov/2003 10:10:01,1,1,0,98
2/Nov/2003 10:20:01,1,1,0,98
2/Nov/2003 10:30:01,1,1,0,98
2/Nov/2003 10:40:01,1,1,0,98
2/Nov/2003 10:50:01,1,1,0,98
2/Nov/2003 11:00:00,1,1,0,98
2/Nov/2003 11:10:00,1,1,0,98
2/Nov/2003 11:20:00,1,1,0,98
2/Nov/2003 11:30:00,1,1,0,98
2/Nov/2003 11:40:03,1,1,0,98
2/Nov/2003 11:50:03,1,1,0,98
2/Nov/2003 12:00:01,1,1,0,98
2/Nov/2003 12:10:01,1,1,0,98
2/Nov/2003 12:20:01,1,1,0,98
2/Nov/2003 12:30:01,1,1,0,98
2/Nov/2003 12:40:01,1,1,0,97
2/Nov/2003 12:50:01,1,1,0,98
2/Nov/2003 13:00:00,1,1,0,98
2/Nov/2003 13:10:00,1,1,0,97
2/Nov/2003 13:20:00,1,1,0,98
2/Nov/2003 13:30:01,1,1,0,98
2/Nov/2003 13:40:01,1,1,0,98
2/Nov/2003 13:50:01,1,1,0,98
2/Nov/2003 14:00:00,1,1,0,98
2/Nov/2003 14:10:00,1,1,0,98
2/Nov/2003 14:20:00,1,1,0,98
2/Nov/2003 14:30:00,1,1,0,98
2/Nov/2003 14:40:00,1,1,0,98
2/Nov/2003 14:50:00,1,1,0,98
2/Nov/2003 15:00:01,1,1,0,98
2/Nov/2003 15:10:01,1,1,0,98
2/Nov/2003 15:20:01,1,1,0,98
2/Nov/2003 15:30:01,1,1,0,98
2/Nov/2003 15:40:01,1,1,0,98
2/Nov/2003 15:50:01,1,1,0,98
2/Nov/2003 16:00:00,1,1,0,98
2/Nov/2003 16:10:00,1,1,0,98
2/Nov/2003 16:20:00,1,1,0,98
2/Nov/2003 16:30:00,1,1,0,98
2/Nov/2003 16:40:00,1,1,0,98
2/Nov/2003 16:50:00,1,1,0,98
2/Nov/2003 17:00:01,1,1,0,98
2/Nov/2003 17:10:01,1,1,0,97
2/Nov/2003 17:20:01,1,1,0,97
2/Nov/2003 17:30:01,1,1,0,98
2/Nov/2003 17:40:01,1,1,0,98
2/Nov/2003 17:50:01,1,1,0,98
2/Nov/2003 18:00:00,1,1,0,98
2/Nov/2003 18:10:00,1,1,0,98
2/Nov/2003 18:20:00,1,1,0,98
2/Nov/2003 18:30:00,1,1,0,98
2/Nov/2003 18:40:00,1,1,0,98
2/Nov/2003 18:50:01,1,1,0,98
2/Nov/2003 19:00:00,1,1,0,98
2/Nov/2003 19:10:00,1,1,0,98
2/Nov/2003 19:20:00,1,1,0,98
2/Nov/2003 19:30:00,1,1,0,98
2/Nov/2003 19:40:00,1,1,0,98
2/Nov/2003 19:50:00,1,1,0,98
2/Nov/2003 20:00:01,1,1,0,98
2/Nov/2003 20:10:01,1,1,0,97
2/Nov/2003 20:20:01,1,1,0,98
2/Nov/2003 20:30:01,1,1,0,98
2/Nov/2003 20:40:01,1,1,0,98
2/Nov/2003 20:50:01,1,1,0,98
2/Nov/2003 21:00:00,1,1,0,98
2/Nov/2003 21:10:00,1,1,0,98
2/Nov/2003 21:20:00,1,1,0,98
2/Nov/2003 21:30:00,1,1,0,98
2/Nov/2003 21:40:00,1,1,0,98
2/Nov/2003 21:50:00,1,1,0,98
2/Nov/2003 22:00:01,1,1,0,98
2/Nov/2003 22:10:01,1,1,0,98
2/Nov/2003 22:20:01,1,1,0,98
2/Nov/2003 22:30:01,1,1,0,98
2/Nov/2003 22:40:01,1,1,0,98
2/Nov/2003 22:50:01,1,1,0,98
2/Nov/2003 23:00:00,1,1,0,98
2/Nov/2003 23:10:00,1,1,0,98
2/Nov/2003 23:20:00,1,1,0,98
2/Nov/2003 23:30:00,1,1,0,98
2/Nov/2003 23:40:00,11,5,0,84
2/Nov/2003 23:50:00,9,5,0,85
3/Nov/2003 01:00:01,1,1,0,97
3/Nov/2003 01:10:01,16,3,5,76
3/Nov/2003 01:20:01,14,3,6,77
3/Nov/2003 01:30:01,12,4,9,75
3/Nov/2003 01:40:01,14,4,6,76
3/Nov/2003 01:50:01,14,7,6,73
3/Nov/2003 02:00:02,14,9,5,72
3/Nov/2003 02:10:02,15,8,5,72
3/Nov/2003 02:20:02,14,6,9,71
3/Nov/2003 02:30:02,12,4,2,82
3/Nov/2003 02:40:02,10,3,0,86
3/Nov/2003 02:50:02,1,1,0,98
3/Nov/2003 03:00:02,1,1,0,98
3/Nov/2003 03:10:02,2,1,1,95
3/Nov/2003 03:20:02,1,1,0,98
3/Nov/2003 03:30:02,1,1,0,98
3/Nov/2003 03:40:02,1,1,0,98
3/Nov/2003 03:50:02,2,1,0,97
3/Nov/2003 04:00:00,2,1,0,97
3/Nov/2003 04:10:00,1,1,0,98
3/Nov/2003 04:20:00,1,1,0,98
3/Nov/2003 04:30:00,1,1,0,98
3/Nov/2003 04:40:00,1,1,0,98
3/Nov/2003 04:50:00,1,1,0,98
3/Nov/2003 05:00:00,1,1,0,98
3/Nov/2003 05:10:00,1,1,0,98
3/Nov/2003 05:20:00,1,1,0,98
3/Nov/2003 05:30:00,1,1,0,98
3/Nov/2003 05:40:00,1,1,0,98
3/Nov/2003 05:50:00,1,1,0,98
3/Nov/2003 06:00:00,1,1,0,98
3/Nov/2003 06:10:00,1,1,0,98
3/Nov/2003 06:20:01,1,1,0,98
3/Nov/2003 06:30:01,1,1,0,98
3/Nov/2003 06:40:01,1,1,0,98
3/Nov/2003 06:50:01,1,1,0,98
3/Nov/2003 07:00:00,1,1,0,98
3/Nov/2003 07:10:00,1,1,0,98
3/Nov/2003 07:20:00,1,1,0,97
3/Nov/2003 07:30:00,1,1,0,98
3/Nov/2003 07:40:00,1,1,0,98
3/Nov/2003 07:50:00,1,1,0,98
3/Nov/2003 08:00:01,1,1,0,98
3/Nov/2003 08:10:01,1,1,0,98
3/Nov/2003 08:20:01,1,1,0,98
3/Nov/2003 08:30:01,1,1,0,98
3/Nov/2003 08:40:01,1,1,0,98
3/Nov/2003 08:50:01,1,1,0,97
3/Nov/2003 09:00:00,1,1,0,98
3/Nov/2003 09:10:00,1,1,0,98
3/Nov/2003 09:20:00,2,1,0,97
3/Nov/2003 09:30:00,2,1,0,97
3/Nov/2003 09:40:00,6,3,3,88
3/Nov/2003 09:50:00,2,1,0,96
3/Nov/2003 10:00:01,1,1,0,97
3/Nov/2003 10:10:01,2,2,0,96
3/Nov/2003 10:20:01,2,1,0,96
3/Nov/2003 10:30:01,2,1,0,96
3/Nov/2003 10:40:01,1,1,0,98
3/Nov/2003 10:50:01,2,1,0,96
3/Nov/2003 11:00:01,1,1,0,97
3/Nov/2003 11:10:01,2,1,0,96
3/Nov/2003 11:20:01,2,1,0,97
3/Nov/2003 11:30:01,2,1,0,97
3/Nov/2003 11:40:04,2,1,0,97
3/Nov/2003 11:50:04,2,1,0,96
3/Nov/2003 12:00:00,2,1,0,96
3/Nov/2003 12:10:00,3,3,0,94
3/Nov/2003 12:20:00,2,1,0,97
3/Nov/2003 12:30:00,2,1,0,96
3/Nov/2003 12:40:00,1,1,0,97
3/Nov/2003 12:50:00,2,1,0,97
3/Nov/2003 13:00:00,2,1,0,96
3/Nov/2003 13:10:00,2,1,0,96
3/Nov/2003 13:20:00,11,2,0,87
3/Nov/2003 13:30:00,12,2,0,86
3/Nov/2003 13:40:00,1,1,0,98
3/Nov/2003 13:50:00,3,2,1,94
3/Nov/2003 14:00:01,4,3,0,93
3/Nov/2003 14:10:01,2,1,0,97
3/Nov/2003 14:20:01,2,1,0,97
3/Nov/2003 14:30:01,2,1,0,97
3/Nov/2003 14:40:01,3,1,0,96
3/Nov/2003 14:50:01,5,4,0,91
3/Nov/2003 15:00:00,4,4,0,91
3/Nov/2003 15:10:00,9,5,1,85
3/Nov/2003 15:20:00,8,8,1,82
3/Nov/2003 15:30:00,16,13,2,68
3/Nov/2003 15:40:00,9,3,1,88
3/Nov/2003 15:50:00,11,1,0,87
3/Nov/2003 16:00:00,5,5,0,91
3/Nov/2003 16:10:00,3,1,0,96
3/Nov/2003 16:20:00,4,2,0,94
3/Nov/2003 16:30:00,13,4,0,83
3/Nov/2003 16:40:00,4,2,1,93
3/Nov/2003 16:50:00,9,7,1,83
3/Nov/2003 17:00:01,5,5,0,91
3/Nov/2003 17:10:01,11,8,0,81
3/Nov/2003 17:20:01,3,1,0,96
3/Nov/2003 17:30:01,2,2,0,96
3/Nov/2003 17:40:01,2,1,0,96
3/Nov/2003 17:50:01,5,4,0,90
3/Nov/2003 18:00:00,5,2,0,93
3/Nov/2003 18:10:00,6,4,0,90
3/Nov/2003 18:20:00,2,1,0,97
3/Nov/2003 18:30:00,2,1,0,97
3/Nov/2003 18:40:00,2,1,0,97
3/Nov/2003 18:50:00,1,1,0,98
3/Nov/2003 19:00:01,1,1,0,97
3/Nov/2003 19:10:01,1,1,0,97
3/Nov/2003 19:20:01,1,1,0,97
3/Nov/2003 19:30:01,1,1,0,97
3/Nov/2003 19:40:01,1,1,0,98
3/Nov/2003 19:50:01,2,1,0,97
3/Nov/2003 20:00:00,1,1,0,97
3/Nov/2003 20:10:00,1,1,0,97
3/Nov/2003 20:20:00,1,1,0,97
3/Nov/2003 20:30:00,1,1,0,97
3/Nov/2003 20:40:00,1,1,0,98
3/Nov/2003 20:50:00,1,1,0,98
3/Nov/2003 21:00:00,1,1,0,97
3/Nov/2003 21:10:00,1,1,0,97
3/Nov/2003 21:20:00,1,1,0,97
3/Nov/2003 21:30:00,1,1,0,98
3/Nov/2003 21:40:00,1,1,0,98
3/Nov/2003 21:50:00,1,1,0,97
3/Nov/2003 22:00:01,1,1,0,97
3/Nov/2003 22:10:01,1,1,0,97
3/Nov/2003 22:20:01,1,1,0,97
3/Nov/2003 22:30:01,1,1,0,98
3/Nov/2003 22:40:01,1,1,0,97
3/Nov/2003 22:50:01,1,1,0,97
3/Nov/2003 23:00:00,1,1,0,97
3/Nov/2003 23:10:00,1,1,0,97
3/Nov/2003 23:20:00,1,1,0,97
3/Nov/2003 23:30:00,1,1,0,98
3/Nov/2003 23:40:00,1,1,0,97
3/Nov/2003 23:50:00,1,1,0,98
4/Nov/2003 01:00:00,2,1,0,97
4/Nov/2003 01:10:01,15,3,5,78
4/Nov/2003 01:20:01,15,3,5,77
4/Nov/2003 01:30:01,13,4,9,75
4/Nov/2003 01:40:01,14,4,6,77
4/Nov/2003 01:50:01,15,5,6,74
4/Nov/2003 02:00:02,15,8,5,72
4/Nov/2003 02:10:02,15,9,4,71
4/Nov/2003 02:20:02,15,6,8,71
4/Nov/2003 02:30:02,12,5,4,79
4/Nov/2003 02:40:02,10,4,0,86
4/Nov/2003 02:50:02,7,4,0,88
4/Nov/2003 03:00:02,13,3,0,84
4/Nov/2003 03:10:03,12,2,2,84
4/Nov/2003 03:20:03,1,1,0,97
4/Nov/2003 03:30:03,1,1,0,97
4/Nov/2003 03:40:03,1,1,0,98
4/Nov/2003 03:50:03,1,1,0,98
4/Nov/2003 04:00:00,1,1,0,98
4/Nov/2003 04:10:00,1,1,0,98
4/Nov/2003 04:20:00,1,1,0,98
4/Nov/2003 04:30:00,1,1,0,97
4/Nov/2003 04:40:00,1,1,0,97
4/Nov/2003 04:50:00,1,1,0,98
4/Nov/2003 05:00:01,1,1,0,97
4/Nov/2003 05:10:01,1,1,0,97
4/Nov/2003 05:20:01,1,1,0,98
4/Nov/2003 05:30:01,1,1,0,98
4/Nov/2003 05:40:01,1,1,0,97
4/Nov/2003 05:50:01,1,1,0,98
4/Nov/2003 06:00:00,1,1,0,97
4/Nov/2003 06:10:00,1,1,0,97
4/Nov/2003 06:20:00,1,1,0,97
4/Nov/2003 06:30:00,1,1,0,98
4/Nov/2003 06:40:00,1,1,0,98
4/Nov/2003 06:50:00,1,1,0,97
4/Nov/2003 07:00:01,2,1,0,96
4/Nov/2003 07:10:01,3,1,0,96
4/Nov/2003 07:20:01,1,1,0,97
4/Nov/2003 07:30:01,1,1,0,98
4/Nov/2003 07:40:01,1,1,0,98
4/Nov/2003 07:50:01,1,1,0,97
4/Nov/2003 08:00:00,1,1,0,98
4/Nov/2003 08:10:00,1,1,0,97
4/Nov/2003 08:20:00,1,1,0,97
4/Nov/2003 08:30:00,1,1,0,97
4/Nov/2003 08:40:01,1,1,0,98
4/Nov/2003 08:50:01,1,1,0,97
4/Nov/2003 09:00:00,1,1,0,97
4/Nov/2003 09:10:00,1,1,0,97
4/Nov/2003 09:20:00,1,1,0,97
4/Nov/2003 09:30:00,1,1,0,98
4/Nov/2003 09:40:00,1,1,0,97
4/Nov/2003 09:50:00,1,1,0,98
4/Nov/2003 10:00:01,1,1,0,97
4/Nov/2003 10:10:01,2,1,0,97
4/Nov/2003 10:20:01,1,1,0,97
4/Nov/2003 10:30:01,2,1,0,97
4/Nov/2003 10:40:01,2,1,1,97
4/Nov/2003 10:50:01,2,1,1,96
4/Nov/2003 11:00:00,2,1,1,96
4/Nov/2003 11:10:00,2,1,0,97
4/Nov/2003 11:20:00,3,2,0,95
4/Nov/2003 11:30:00,4,1,0,95
4/Nov/2003 11:40:04,5,3,0,92
4/Nov/2003 11:50:04,4,2,0,93
4/Nov/2003 12:00:00,5,3,1,91
4/Nov/2003 12:10:00,3,1,1,95
4/Nov/2003 12:20:00,3,1,0,95
4/Nov/2003 12:30:00,3,1,0,96
4/Nov/2003 12:40:00,2,1,0,97
4/Nov/2003 12:50:00,2,1,0,97
4/Nov/2003 13:00:01,2,1,0,97
4/Nov/2003 13:10:01,1,1,0,97
4/Nov/2003 13:20:01,1,1,0,98
4/Nov/2003 13:30:01,2,1,0,97
4/Nov/2003 13:40:01,1,1,0,98
4/Nov/2003 13:50:01,2,1,0,97
4/Nov/2003 14:00:00,1,1,0,97
4/Nov/2003 14:10:00,1,1,0,97
4/Nov/2003 14:20:00,1,1,0,97
4/Nov/2003 14:30:00,1,1,0,98
4/Nov/2003 14:40:00,1,1,0,98
4/Nov/2003 14:50:00,1,1,0,97
4/Nov/2003 15:00:01,2,1,0,96
4/Nov/2003 15:10:01,2,1,0,97
4/Nov/2003 15:20:01,3,1,0,95
4/Nov/2003 15:30:01,3,1,0,96
4/Nov/2003 15:40:01,3,1,0,96
4/Nov/2003 15:50:01,5,3,0,91
4/Nov/2003 16:00:00,5,2,0,93
4/Nov/2003 16:10:00,7,4,0,90
4/Nov/2003 16:20:01,4,2,0,94
4/Nov/2003 16:30:01,6,4,0,90
4/Nov/2003 16:40:01,3,2,0,96
4/Nov/2003 16:50:01,6,6,0,89
4/Nov/2003 17:00:00,13,17,0,70
4/Nov/2003 17:10:00,14,17,0,69
4/Nov/2003 17:20:00,7,8,0,85
4/Nov/2003 17:30:00,3,2,0,96
4/Nov/2003 17:40:00,2,1,0,97
4/Nov/2003 17:50:00,2,1,0,98
4/Nov/2003 18:00:01,1,1,0,97
4/Nov/2003 18:10:01,1,1,0,97
4/Nov/2003 18:20:01,3,2,0,95
4/Nov/2003 18:30:01,2,1,0,96
4/Nov/2003 18:40:01,2,1,0,97
4/Nov/2003 18:50:01,2,1,0,97
4/Nov/2003 19:00:00,1,1,0,97
4/Nov/2003 19:10:00,1,1,0,97
4/Nov/2003 19:20:01,1,1,0,97
4/Nov/2003 19:30:01,2,1,0,97
4/Nov/2003 19:40:01,1,1,0,97
4/Nov/2003 19:50:01,2,1,0,97
4/Nov/2003 20:00:00,1,1,0,97
4/Nov/2003 20:10:00,1,1,0,97
4/Nov/2003 20:20:00,2,1,0,97
4/Nov/2003 20:30:00,1,1,0,98
4/Nov/2003 20:40:00,1,1,0,97
4/Nov/2003 20:50:00,1,1,0,98
4/Nov/2003 21:00:01,1,1,0,98
4/Nov/2003 21:10:01,1,1,0,98
4/Nov/2003 21:20:01,1,1,0,98
4/Nov/2003 21:30:01,1,1,0,98
4/Nov/2003 21:40:01,1,1,0,98
4/Nov/2003 21:50:01,1,1,0,98
4/Nov/2003 22:00:00,1,1,0,98
4/Nov/2003 22:10:00,1,1,0,98
4/Nov/2003 22:20:00,1,1,0,98
4/Nov/2003 22:30:00,1,1,0,98
4/Nov/2003 22:40:00,1,1,0,98
4/Nov/2003 22:50:00,1,1,0,98
4/Nov/2003 23:00:00,1,1,0,98
4/Nov/2003 23:10:00,1,1,0,98
4/Nov/2003 23:20:00,1,1,0,98
4/Nov/2003 23:30:00,1,1,0,98
4/Nov/2003 23:40:00,1,1,0,98
4/Nov/2003 23:50:00,1,1,0,98
5/Nov/2003 01:00:01,2,1,0,97
5/Nov/2003 01:10:01,14,3,6,77
5/Nov/2003 01:20:01,15,3,5,78
5/Nov/2003 01:30:01,13,3,9,75
5/Nov/2003 01:40:01,13,4,7,76
5/Nov/2003 01:50:01,15,5,6,74
5/Nov/2003 02:00:02,15,7,5,73
5/Nov/2003 02:10:03,15,10,4,72
5/Nov/2003 02:20:03,15,6,7,73
5/Nov/2003 02:30:03,13,5,6,76
5/Nov/2003 02:40:03,9,3,0,87
5/Nov/2003 02:50:03,1,1,0,98
5/Nov/2003 03:00:00,1,1,0,98
5/Nov/2003 03:10:00,2,1,1,95
5/Nov/2003 03:20:00,1,1,0,98
5/Nov/2003 03:30:00,1,1,0,98
5/Nov/2003 03:40:00,1,1,0,98
5/Nov/2003 03:50:00,1,1,0,98
5/Nov/2003 04:00:01,1,1,0,98
5/Nov/2003 04:10:01,1,1,0,98
5/Nov/2003 04:20:01,1,1,0,98
5/Nov/2003 04:30:01,1,1,0,98
5/Nov/2003 04:40:01,1,1,0,98
5/Nov/2003 04:50:01,1,1,0,98
5/Nov/2003 05:00:00,1,1,0,98
5/Nov/2003 05:10:00,1,1,0,98
5/Nov/2003 05:20:01,1,1,0,98
5/Nov/2003 05:30:01,1,1,0,98
5/Nov/2003 05:40:01,1,1,0,98
5/Nov/2003 05:50:01,1,1,0,98
5/Nov/2003 06:00:00,1,1,0,98
5/Nov/2003 06:10:00,1,1,0,98
5/Nov/2003 06:20:00,1,1,0,98
5/Nov/2003 06:30:00,1,1,0,98
5/Nov/2003 06:40:00,2,1,0,97
5/Nov/2003 06:50:00,1,1,0,98
5/Nov/2003 07:00:01,1,1,0,98
5/Nov/2003 07:10:01,1,1,0,98
5/Nov/2003 07:20:01,1,1,0,97
5/Nov/2003 07:30:01,1,1,0,98
5/Nov/2003 07:40:01,1,1,0,98
5/Nov/2003 07:50:01,1,1,0,98
5/Nov/2003 08:00:00,1,1,0,98
5/Nov/2003 08:10:00,2,1,0,97
5/Nov/2003 08:20:00,1,1,0,98
5/Nov/2003 08:30:00,1,1,0,98
5/Nov/2003 08:40:00,1,1,0,98
5/Nov/2003 08:50:00,1,1,0,98
5/Nov/2003 09:00:01,1,1,0,98
5/Nov/2003 09:10:01,1,1,0,98
5/Nov/2003 09:20:01,2,1,1,96
5/Nov/2003 09:30:01,2,1,0,97
5/Nov/2003 09:40:01,2,1,1,95
5/Nov/2003 09:50:01,2,1,0,97
5/Nov/2003 10:00:00,1,1,0,97
5/Nov/2003 10:10:00,1,1,0,97
5/Nov/2003 10:20:00,1,1,0,98
5/Nov/2003 10:30:00,1,1,0,98
5/Nov/2003 10:40:00,1,1,0,97
5/Nov/2003 10:50:00,5,1,1,92
5/Nov/2003 11:00:00,10,2,0,87
5/Nov/2003 11:10:00,4,1,0,94
5/Nov/2003 11:20:00,10,11,0,78
5/Nov/2003 11:30:00,13,16,0,71
5/Nov/2003 11:40:03,13,16,0,70
5/Nov/2003 11:50:03,9,11,0,80
5/Nov/2003 12:00:01,2,1,0,97
5/Nov/2003 12:10:01,5,5,0,90
5/Nov/2003 12:20:01,14,18,0,68
5/Nov/2003 12:30:01,16,22,0,61
5/Nov/2003 12:40:01,9,12,0,80
5/Nov/2003 12:50:01,1,1,0,97
5/Nov/2003 13:00:00,2,1,0,97
5/Nov/2003 13:10:00,5,1,0,94
5/Nov/2003 13:20:00,5,1,0,94
5/Nov/2003 13:30:00,2,1,0,97
5/Nov/2003 13:40:00,3,1,0,96
5/Nov/2003 13:50:00,4,2,1,94
5/Nov/2003 14:00:01,2,1,0,97
5/Nov/2003 14:10:01,4,2,0,93
5/Nov/2003 14:20:01,7,5,0,88
5/Nov/2003 14:30:01,8,6,0,86
5/Nov/2003 14:40:01,3,1,0,96
5/Nov/2003 14:50:01,3,1,0,95
5/Nov/2003 15:00:00,2,1,0,97
5/Nov/2003 15:10:00,2,1,0,97
5/Nov/2003 15:20:00,2,1,0,97
5/Nov/2003 15:30:01,2,1,0,97
5/Nov/2003 15:40:01,7,2,0,91
5/Nov/2003 15:50:01,4,2,0,93
5/Nov/2003 16:00:00,4,2,0,94
5/Nov/2003 16:10:00,6,2,0,91
5/Nov/2003 16:20:00,9,2,1,89
5/Nov/2003 16:30:00,5,1,0,93
5/Nov/2003 16:40:00,3,3,0,94
5/Nov/2003 16:50:00,1,1,0,98
5/Nov/2003 17:00:01,1,1,0,97
5/Nov/2003 17:10:01,1,1,0,97
5/Nov/2003 17:20:01,1,1,0,98
5/Nov/2003 17:30:01,1,1,0,98
5/Nov/2003 17:40:01,1,1,0,98
5/Nov/2003 17:50:01,1,1,0,98
5/Nov/2003 18:00:00,1,1,0,98
5/Nov/2003 18:10:00,1,1,0,97
5/Nov/2003 18:20:00,1,1,0,98
5/Nov/2003 18:30:00,1,1,0,98
5/Nov/2003 18:40:00,1,1,0,98
5/Nov/2003 18:50:01,1,1,0,98
5/Nov/2003 19:00:00,1,1,0,98
5/Nov/2003 19:10:00,1,1,0,97
5/Nov/2003 19:20:00,1,1,0,98
5/Nov/2003 19:30:00,1,1,0,98
5/Nov/2003 19:40:00,1,1,0,98
5/Nov/2003 19:50:00,1,1,0,98
5/Nov/2003 20:00:01,1,1,0,98
5/Nov/2003 20:10:01,1,1,0,97
5/Nov/2003 20:20:01,1,1,0,98
5/Nov/2003 20:30:01,1,1,0,98
5/Nov/2003 20:40:01,1,1,0,98
5/Nov/2003 20:50:01,2,1,0,97
5/Nov/2003 21:00:00,1,1,0,98
5/Nov/2003 21:10:00,1,1,0,98
5/Nov/2003 21:20:00,1,1,0,98
5/Nov/2003 21:30:00,1,1,0,98
5/Nov/2003 21:40:00,1,1,0,98
5/Nov/2003 21:50:00,1,1,0,98
5/Nov/2003 22:00:01,1,1,0,98
5/Nov/2003 22:10:01,1,1,0,97
5/Nov/2003 22:20:01,1,1,0,98
5/Nov/2003 22:30:01,1,1,0,98
5/Nov/2003 22:40:01,1,1,0,98
5/Nov/2003 22:50:01,1,1,0,98
5/Nov/2003 23:00:01,1,1,0,98
5/Nov/2003 23:10:01,1,1,0,98
5/Nov/2003 23:20:01,1,1,0,98
5/Nov/2003 23:30:01,1,1,0,98
5/Nov/2003 23:40:01,1,1,0,98
5/Nov/2003 23:50:01,1,1,0,98
6/Nov/2003 01:00:01,1,1,0,97
6/Nov/2003 01:10:01,15,3,4,78
6/Nov/2003 01:20:01,16,2,2,79
6/Nov/2003 01:30:01,13,4,7,76
6/Nov/2003 01:40:01,14,4,6,76
6/Nov/2003 01:50:01,15,5,6,74
6/Nov/2003 02:00:02,15,7,4,74
6/Nov/2003 02:10:02,15,9,4,72
6/Nov/2003 02:20:03,15,5,6,73
6/Nov/2003 02:30:03,14,5,5,76
6/Nov/2003 02:40:03,10,4,0,86
6/Nov/2003 02:50:03,8,4,0,88
6/Nov/2003 03:00:02,10,4,0,86
6/Nov/2003 03:10:02,3,1,1,95
6/Nov/2003 03:20:02,1,1,0,98
6/Nov/2003 03:30:02,1,1,0,98
6/Nov/2003 03:40:02,1,1,0,98
6/Nov/2003 03:50:02,1,1,0,98
6/Nov/2003 04:00:00,1,1,0,98
6/Nov/2003 04:10:00,1,1,0,98
6/Nov/2003 04:20:00,1,1,0,98
6/Nov/2003 04:30:00,1,1,0,98
6/Nov/2003 04:40:00,1,1,0,98
6/Nov/2003 04:50:00,1,1,0,98
6/Nov/2003 05:00:01,1,1,0,98
6/Nov/2003 05:10:01,1,1,0,98
6/Nov/2003 05:20:01,1,1,0,98
6/Nov/2003 05:30:01,1,1,0,98
6/Nov/2003 05:40:01,1,1,0,98
6/Nov/2003 05:50:01,1,1,0,98
6/Nov/2003 06:00:01,1,1,0,98
6/Nov/2003 06:10:01,1,1,0,98
6/Nov/2003 06:20:01,1,1,0,98
6/Nov/2003 06:30:01,1,1,0,98
6/Nov/2003 06:40:01,1,1,0,98
6/Nov/2003 06:50:01,1,1,0,98
6/Nov/2003 07:00:00,3,2,0,95
6/Nov/2003 07:10:00,1,1,0,98
6/Nov/2003 07:20:00,1,1,0,97
6/Nov/2003 07:30:00,1,1,0,98
6/Nov/2003 07:40:00,1,1,0,98
6/Nov/2003 07:50:00,1,1,0,98
6/Nov/2003 08:00:01,1,1,0,98
6/Nov/2003 08:10:01,1,1,0,97
6/Nov/2003 08:20:01,1,1,0,97
6/Nov/2003 08:30:01,1,1,0,98
6/Nov/2003 08:40:01,1,1,0,98
6/Nov/2003 08:50:01,1,1,0,97
6/Nov/2003 09:00:00,1,1,0,98
6/Nov/2003 09:10:00,1,1,0,97
6/Nov/2003 09:20:00,2,1,1,97
6/Nov/2003 09:30:00,1,1,0,97
6/Nov/2003 09:40:00,2,1,0,97
6/Nov/2003 09:50:00,4,1,0,95
6/Nov/2003 10:00:00,2,1,1,97
6/Nov/2003 10:10:00,1,1,0,97
6/Nov/2003 10:20:00,1,1,0,98
6/Nov/2003 10:30:00,1,1,0,98
6/Nov/2003 10:40:00,3,1,0,96
6/Nov/2003 10:50:00,2,1,0,97
6/Nov/2003 11:00:01,4,1,0,95
6/Nov/2003 11:10:01,5,1,0,93
6/Nov/2003 11:20:01,6,2,1,91
6/Nov/2003 11:30:04,5,1,1,93
6/Nov/2003 11:40:04,5,2,0,93
6/Nov/2003 11:50:04,6,1,0,93
6/Nov/2003 12:00:00,6,1,0,93
6/Nov/2003 12:10:00,6,1,0,93
6/Nov/2003 12:20:00,6,1,0,93
6/Nov/2003 12:30:00,6,1,0,93
6/Nov/2003 12:40:00,6,1,0,93
6/Nov/2003 12:50:00,6,1,0,92
6/Nov/2003 13:00:00,6,3,1,91
6/Nov/2003 13:10:00,2,1,0,96
6/Nov/2003 13:20:00,2,1,0,97
6/Nov/2003 13:30:00,2,1,0,97
6/Nov/2003 13:40:00,1,1,0,97
6/Nov/2003 13:50:00,2,1,0,97
6/Nov/2003 14:00:01,2,1,0,97
6/Nov/2003 14:10:01,2,1,0,97
6/Nov/2003 14:20:01,2,1,0,97
6/Nov/2003 14:30:01,2,1,0,97
6/Nov/2003 14:40:01,2,1,0,97
6/Nov/2003 14:50:01,2,1,0,97
6/Nov/2003 15:00:00,2,1,0,96
6/Nov/2003 15:10:00,3,1,0,96
6/Nov/2003 15:20:00,4,1,0,94
6/Nov/2003 15:30:00,2,1,0,97
6/Nov/2003 15:40:00,2,1,0,97
6/Nov/2003 15:50:00,2,1,0,97
6/Nov/2003 16:00:01,2,1,0,97
6/Nov/2003 16:10:01,2,1,0,97
6/Nov/2003 16:20:01,2,1,0,97
6/Nov/2003 16:30:01,2,1,0,97
6/Nov/2003 16:40:01,3,1,0,96
6/Nov/2003 16:50:01,2,1,0,96
6/Nov/2003 17:00:00,2,1,0,97
6/Nov/2003 17:10:00,2,1,0,97
6/Nov/2003 17:20:00,1,1,0,97
6/Nov/2003 17:30:00,1,1,0,98
6/Nov/2003 17:40:00,2,1,0,97
6/Nov/2003 17:50:00,1,1,0,98
6/Nov/2003 18:00:00,1,1,0,98
6/Nov/2003 18:10:00,1,1,0,97
6/Nov/2003 18:20:00,1,1,0,98
6/Nov/2003 18:30:00,1,1,0,98
6/Nov/2003 18:40:00,1,1,0,98
6/Nov/2003 18:50:00,1,1,0,98
6/Nov/2003 19:00:01,1,1,0,98
6/Nov/2003 19:10:01,1,1,0,97
6/Nov/2003 19:20:01,1,1,0,98
6/Nov/2003 19:30:01,1,1,0,98
6/Nov/2003 19:40:01,1,1,0,98
6/Nov/2003 19:50:01,1,1,0,98
6/Nov/2003 20:00:00,1,1,0,98
6/Nov/2003 20:10:00,1,1,0,97
6/Nov/2003 20:20:00,1,1,0,98
6/Nov/2003 20:30:00,1,1,0,98
6/Nov/2003 20:40:00,1,1,0,98
6/Nov/2003 20:50:00,1,1,0,98
6/Nov/2003 21:00:01,1,1,0,98
6/Nov/2003 21:10:01,1,1,0,98
6/Nov/2003 21:20:01,1,1,0,98
6/Nov/2003 21:30:01,1,1,0,98
6/Nov/2003 21:40:01,1,1,0,98
6/Nov/2003 21:50:01,1,1,0,98
6/Nov/2003 22:00:00,1,1,0,98
6/Nov/2003 22:10:00,1,1,0,97
6/Nov/2003 22:20:00,1,1,0,98
6/Nov/2003 22:30:00,1,1,0,98
6/Nov/2003 22:40:00,1,1,0,98
6/Nov/2003 22:50:00,1,1,0,98
6/Nov/2003 23:00:00,1,1,0,98